< < Back
Terminal Aerodrome Forecast


Current Version              Previous Versions:   1  2  3  4  5  6  7  8  9  

Terminal Aerodrome Forecast

239
FTUS42 KTAE 301000 AAB
TAFVLD
TAF AMD
KVLD 301052Z 3011/3106 VRB05KT P6SM SCT013
     FM301300 36006KT P6SM SCT030 SCT250
     FM310300 00000KT P6SM SCT250=



Latest METAR

212
SAUS70 KWBC 310400 RRF
MTRVLD
METAR KVLD 310353Z AUTO 00000KT 10SM CLR 11/07 A2994 RMK AO2 SLP147
P0001 T01060067


USA.gov is the U.S. government's official web portal to all federal, state and local government web resources and services.